GSAT0201

Last updated on Sun May 29 2016 17:39:59 GMT+0000 (Coordinated Universal Time)

1 40128U 14050A 16149.20816831 -.00000056 00000-0 00000-0 0 9997 2 40128 50.0716 60.6598 1592210 49.9066 323.0051 1.85518375 10226

Satellite not in orbit

GSAT0201